• Bienvenue sur Pilotes Québec!
  • Bienvenue sur le site de Pilotes Québec, la nouvelle communauté des pilotes et aviateurs du Québec.
  • L'image de cette semaine nous vient de Denis Morissette!  La photo a été prise à Miguasha, en Gaspésie, lors d'un atterrissage par bon vent de travers et fort vent rabattant en finale.
  • Calendrier des activités
  • sujets récents au forum...
  • Les nouvelles en bref...

Connexion


J'ai oublié mon mot de passe
Renvoyer l'e-mail de confirmation
 

Publicité

Vous aimeriez afficher une publicité pour joindre la communauté des pilotes professionnels et privé du Québec?  Cliquez ici pour en savoir plus!

Conditions actuelles

Click for Quebec, Quebec Forecast

METAR - Québec


2015/07/06 06:00
CYQB 060600Z 30003KT 260V050 15SM SCT240 15/14 A3010 RMK CI3 SLP192

TAF - Québec


2015/07/06 06:42
TAF CYQB 060538Z 0606/0706 24005KT P6SM FEW060
BECMG 0612/0614 23012KT
BECMG 0623/0701 22005KT
RMK NXT FCST BY 061200Z